Weather History for Cape Girardeau, MO

Change the Weather History Date:

Tuesday, November 6, 2012

  Actual Average Record
Temperature  
Mean Temperature 44 °F 51 °F  
Max Temperature 49 °F 62 °F 79 °F (1999)
Min Temperature 38 °F 40 °F 20 °F (2010)
Degree Days  
Heating Degree Days 21 14  
Month to date heating degree days 108 81  
Since 1 July heating degree days 453 384  
Cooling Degree Days 0 0  
Month to date cooling degree days 0 0  
Year to date cooling degree days 1784 1451  
Moisture  
Dew Point 40 °F    
Average Humidity 83    
Maximum Humidity 89    
Minimum Humidity 76    
Precipitation  
Precipitation T in 0.14 in 1.43 in (2000)
Month to date precipitation T 0.80  
Year to date precipitation 23.96 38.92  
Sea Level Pressure  
Sea Level Pressure 30.02 in    
Wind  
Wind Speed 5 mph (WNW)    
Max Wind Speed 10 mph    
Max Gust Speed 14 mph    
Visibility 8 miles    
Events Rain    
T = Trace of Precipitation, MM = Missing Value Source: NWS Daily Summary

Daily Weather History Graph

Daily Weather History Graph

Search for Another Location

Airport:

Trip Planner

Search our weather history database for the weather conditions in past years. The results will help you decide how hot, cold, wet, or windy it might be!

Date:

Astronomy

Nov. 06, 2012 Rise Set
Actual Time 6:28 AM CST 4:54 PM CST
Civil Twilight 6:01 AM CST 5:22 PM CST
Nautical Twilight 5:30 AM CST 5:53 PM CST
Astronomical Twilight 4:59 AM CST 6:23 PM CST
Moon 11:32 PM CST (11/6) 12:21 PM CST (11/6)
Length of Visible Light 11h 21m
Length of Day
10h 26m
Waning Gibbous, 53% of the Moon is Illuminated
Nov 6
Waning Gibbous
Nov 6
Last Quarter
Nov 13
New
Nov 20
First Quarter
Nov 28
Full

Hourly Weather History & Observations

Time (CST) Temp. Windchill Dew Point Humidity Pressure Visibility Wind Dir Wind Speed Gust Speed Precip Events Conditions
12:53 AM 43.0 °F 40.3 °F 39.0 °F 86% 30.06 in 7.0 mi NNE 4.6 mph - N/A   Overcast
1:53 AM 43.0 °F 40.3 °F 39.0 °F 86% 30.07 in 6.0 mi North 4.6 mph - N/A   Overcast
2:53 AM 42.8 °F - 39.2 °F 87% 30.06 in 6.0 mi Calm Calm - N/A   Overcast
3:53 AM 42.1 °F 40.2 °F 39.0 °F 89% 30.04 in 5.0 mi NNE 3.5 mph - N/A   Overcast
4:17 AM 42.8 °F - 37.4 °F 81% 30.04 in 6.0 mi Calm Calm - N/A   Overcast
4:53 AM 41.0 °F 39.0 °F 37.0 °F 86% 30.05 in 7.0 mi North 3.5 mph - N/A   Partly Cloudy
5:16 AM 39.2 °F 35.9 °F 37.4 °F 93% 30.06 in 4.0 mi WNW 4.6 mph - N/A   Mostly Cloudy
5:53 AM 42.1 °F 40.2 °F 39.0 °F 89% 30.08 in 4.0 mi NW 3.5 mph - N/A   Overcast
6:43 AM 42.8 °F 41.1 °F 39.2 °F 87% 30.07 in 5.0 mi NNW 3.5 mph - N/A   Overcast
6:53 AM 42.1 °F 39.2 °F 39.0 °F 89% 30.08 in 4.0 mi NNW 4.6 mph - N/A   Overcast
7:53 AM 43.0 °F 41.3 °F 37.9 °F 82% 30.08 in 5.0 mi North 3.5 mph - N/A   Haze
8:53 AM 44.1 °F - 37.9 °F 79% 30.07 in 5.0 mi Calm Calm - N/A   Haze
9:53 AM 45.0 °F 43.5 °F 37.9 °F 76% 30.07 in 6.0 mi West 3.5 mph - N/A   Haze
10:53 AM 45.0 °F - 39.0 °F 80% 30.07 in 6.0 mi Calm Calm - N/A   Haze
11:53 AM 46.9 °F - 39.9 °F 77% 30.03 in 8.0 mi WNW 4.6 mph - N/A   Overcast
12:53 PM 48.0 °F - 41.0 °F 77% 30.01 in 9.0 mi WSW 3.5 mph - N/A   Mostly Cloudy
1:53 PM 48.9 °F - 41.0 °F 74% 29.97 in 10.0 mi SW 6.9 mph - N/A   Overcast
2:53 PM 48.9 °F - 41.0 °F 74% 29.96 in 10.0 mi SW 8.1 mph - N/A   Overcast
3:53 PM 48.9 °F - 42.1 °F 77% 29.95 in 10.0 mi SW 4.6 mph - N/A   Overcast
4:08 PM 48.2 °F - 42.8 °F 82% 29.95 in 10.0 mi WSW 6.9 mph - N/A   Overcast
4:53 PM 48.9 °F - 43.0 °F 80% 29.96 in 10.0 mi WSW 6.9 mph - N/A   Overcast
5:53 PM 48.0 °F - 43.0 °F 83% 29.98 in 10.0 mi WSW 5.8 mph - N/A   Overcast
6:48 PM 48.2 °F - 42.8 °F 82% 29.98 in 10.0 mi West 9.2 mph - N/A   Overcast
6:53 PM 48.0 °F - 42.1 °F 80% 29.98 in 10.0 mi West 8.1 mph - N/A   Overcast
7:53 PM 46.9 °F - 42.1 °F 83% 29.97 in 10.0 mi West 5.8 mph - N/A   Overcast
8:53 PM 43.0 °F 39.5 °F 39.9 °F 89% 29.98 in 10.0 mi West 5.8 mph - N/A   Partly Cloudy
9:53 PM 41.0 °F 36.4 °F 37.9 °F 89% 29.98 in 10.0 mi WSW 6.9 mph - N/A   Scattered Clouds
10:53 PM 44.1 °F 40.1 °F 39.9 °F 85% 29.96 in 10.0 mi West 6.9 mph - N/A   Overcast
11:53 PM 43.0 °F 40.3 °F 41.0 °F 93% 29.96 in 9.0 mi West 4.6 mph - 0.00 in Rain Light Rain